This is the latest recevied weather packets stored in our database for station/object KC0AFB. If no packets are shown the sender has not sent any weather packets the latest 10 day(s).
| Time | Temp. | Humidity | Pressure | Rain* | Wind** | Luminosity | Snow |
|---|---|---|---|---|---|---|---|
| 1778164644 | 6.67° C | 53% | 1012.5 hPa | 0 mm | - | 372 W/m² | - |
| 1778164341 | 6.67° C | 53% | 1012.5 hPa | 0 mm | - | 347 W/m² | - |
| 1778164037 | 6.11° C | 54% | 1012.4 hPa | 0 mm | - | 328 W/m² | - |
| 1778163734 | 6.11° C | 58% | 1012.6 hPa | 0 mm | - | 307 W/m² | - |
| 1778163430 | 5.56° C | 58% | 1012.5 hPa | 0 mm | - | 291 W/m² | - |
| 1778163127 | 5° C | 58% | 1012.5 hPa | 0 mm | - | 280 W/m² | - |
| 1778162823 | 5° C | 59% | 1012.5 hPa | 0 mm | - | 258 W/m² | - |
| 1778162521 | 5° C | 59% | 1012.3 hPa | 0 mm | - | 259 W/m² | - |
| 1778162218 | 5° C | 60% | 1012.5 hPa | 0 mm | - | 240 W/m² | - |
| 1778161915 | 4.44° C | 62% | 1012.5 hPa | 0 mm | - | 230 W/m² | - |
| 1778161611 | 5° C | 62% | 1012.3 hPa | 0 mm | - | 212 W/m² | - |
| 1778161308 | 3.89° C | 64% | 1012.1 hPa | 0 mm | - | 208 W/m² | - |
| 1778161003 | 4.44° C | 63% | 1012.3 hPa | 0 mm | - | 189 W/m² | - |
| 1778160701 | 3.89° C | 61% | 1012.2 hPa | 0 mm | - | 181 W/m² | - |
| 1778160398 | 3.89° C | 61% | 1012.3 hPa | 0 mm | - | 174 W/m² | - |
| 1778160094 | 3.89° C | 61% | 1012.3 hPa | 0 mm | - | 163 W/m² | - |
| 1778159791 | 3.89° C | 61% | 1012.5 hPa | 0 mm | - | 159 W/m² | - |
| 1778159489 | 3.89° C | 61% | 1012.3 hPa | 0 mm | - | 144 W/m² | - |
| 1778159185 | 3.89° C | 61% | 1012.1 hPa | 0 mm | - | 139 W/m² | - |
| 1778158883 | 3.89° C | 61% | 1012.2 hPa | 0 mm | - | 115 W/m² | - |
| 1778158582 | 3.33° C | 61% | 1012.1 hPa | 0 mm | - | 101 W/m² | - |
| 1778158279 | 3.33° C | 61% | 1011.9 hPa | 0 mm | - | 87 W/m² | - |
| 1778157975 | 3.89° C | 60% | 1012.1 hPa | 0 mm | - | 64 W/m² | - |
| 1778157673 | 3.89° C | 62% | 1012.2 hPa | 0 mm | - | 58 W/m² | - |
| 1778157371 | 2.22° C | 64% | 1012 hPa | 0 mm | - | 54 W/m² | - |
* Rain latest hour (hover to see other rain measurements)
** Current wind speed in m/s (hover to see current wind gust speed)